This is the latest recevied weather packets stored in our database for station/object KE5BM-13. If no packets are shown the sender has not sent any weather packets the latest 1 day(s).
| Time | Temp. | Humidity | Pressure | Rain* | Wind** | Luminosity | Snow |
|---|---|---|---|---|---|---|---|
| 1777993502 | 15.56° C | 79% | 1012.1 hPa | 0 mm | 2.68 m/s, 159° | - | - |
| 1777993201 | 15.56° C | 79% | 1011.9 hPa | 0 mm | 2.68 m/s, 167° | - | - |
| 1777992903 | 15.56° C | 80% | 1011.9 hPa | 0 mm | 2.68 m/s, 192° | - | - |
| 1777992601 | 15.56° C | 80% | 1011.9 hPa | 0 mm | 2.68 m/s, 164° | - | - |
| 1777992300 | 15.56° C | 79% | 1011.9 hPa | 0 mm | 3.13 m/s, 159° | - | - |
| 1777991999 | 15.56° C | 78% | 1011.9 hPa | 0 mm | 2.68 m/s, 148° | - | - |
| 1777991699 | 16.11° C | 79% | 1011.9 hPa | 0 mm | 2.24 m/s, 160° | - | - |
| 1777991398 | 16.11° C | 79% | 1011.9 hPa | 0 mm | 2.24 m/s, 91° | - | - |
| 1777991097 | 15.56° C | 79% | 1011.8 hPa | 0 mm | 2.24 m/s, 152° | - | - |
| 1777990799 | 15.56° C | 79% | 1011.8 hPa | 0 mm | 2.68 m/s, 163° | - | - |
| 1777990498 | 15.56° C | 79% | 1011.7 hPa | 0 mm | 2.68 m/s, 169° | - | - |
| 1777990196 | 15.56° C | 80% | 1011.5 hPa | 0 mm | 2.24 m/s, 161° | - | - |
| 1777989897 | 15.56° C | 79% | 1011.6 hPa | 0 mm | 2.24 m/s, 163° | - | - |
| 1777989596 | 15.56° C | 80% | 1011.6 hPa | 0 mm | 2.68 m/s, 222° | - | - |
| 1777989293 | 15.56° C | 80% | 1011.6 hPa | 0 mm | 2.68 m/s, 165° | - | - |
| 1777988995 | 15° C | 80% | 1011.6 hPa | 0 mm | 2.24 m/s, 136° | - | - |
| 1777988693 | 15° C | 80% | 1011.5 hPa | 0 mm | 2.24 m/s, 177° | - | - |
| 1777988394 | 15° C | 82% | 1011.5 hPa | 0 mm | 2.68 m/s, 158° | - | - |
| 1777988094 | 15° C | 81% | 1011.6 hPa | 0 mm | 2.68 m/s, 162° | - | - |
| 1777987793 | 14.44° C | 82% | 1011.7 hPa | 0 mm | 2.68 m/s, 170° | - | - |
| 1777987494 | 14.44° C | 82% | 1011.8 hPa | 0 mm | 2.68 m/s, 207° | - | - |
| 1777987196 | 14.44° C | 81% | 1011.8 hPa | 0 mm | 2.24 m/s, 164° | - | - |
| 1777986888 | 14.44° C | 82% | 1011.7 hPa | 0 mm | 2.24 m/s, 152° | - | - |
| 1777986587 | 14.44° C | 82% | 1011.6 hPa | 0 mm | 2.68 m/s, 164° | - | - |
| 1777986284 | 14.44° C | 83% | 1011.6 hPa | 0 mm | 2.68 m/s, 212° | - | - |
* Rain latest hour (hover to see other rain measurements)
** Current wind speed in m/s (hover to see current wind gust speed)